This demonstration page uses our WeatherBlox Daily Observations layout. Learn more.

Left ArrowRight Arrow

41.86663, -103.66717

Hourly Observations for October 22, 2015

Temp ( °F °C ) Dew Point ( °F °C ) Humidity (%) Winds ( mph kmh ) Pressure ( in mb ) Visibility ( mi km ) Precip ( " mm )
7:53 am 07:53 Cloudy 48 8.9 43 6.1 83 83 ESE 8 13 30.10 1019 10 16 N/A
8:53 am 08:53 Cloudy 49 9.4 42 5.6 77 77 ESE 9 15 30.09 1019 10 16 N/A
9:53 am 09:53 Cloudy 50 10 41 5 71 71 ESE 12 19 30.09 1019 10 16 N/A
10:53 am 10:53 Cloudy with Light Rain 49 9.4 43 6.1 80 80 ESE 12 19 30.08 1019 10 16 N/A
11:28 am 11:28 Cloudy with Light Rain 46 8 45 7 93 93 ESE 10 17 30.09 1019 4 6 N/A
11:46 am 11:46 Cloudy with Light Rain 46 8 45 7 93 93 ESE 14 22 30.09 1019 4 6 N/A
11:53 am 11:53 Cloudy with Light Rain 47 8.3 44 6.7 90 90 ESE 12 19 30.06 1018 4 6 0.05 1.27
12:00 pm 12:00 Cloudy with Rain 46 8 45 7 93 93 ESE 9 15 30.06 1018 3 5 N/A
12:22 pm 12:22 Cloudy with Light Rain 46 8 45 7 93 93 E 9 15 30.06 1018 4 6 N/A
12:50 pm 12:50 Cloudy with Rain 46 8 45 7 93 93 ESE 9 15 30.03 1017 3 5 N/A
12:53 pm 12:53 Cloudy with Rain 46 7.8 43 6.1 89 89 ESE 9 15 30.03 1017 3 5 0.10 2.54
1:01 pm 13:01 Cloudy with Rain 46 7.8 43 6.1 89 89 ESE 8 13 30.03 1017 3 5 0.02 0.51
1:14 pm 13:14 Cloudy with Light Rain 46 8 45 7 93 93 ESE 6 9 30.03 1017 4 6 N/A
1:33 pm 13:33 Cloudy with Rain 46 7.8 46 7.8 100 100 NNE 5 7 29.97 1015 4 6 0.09 2.29
1:40 pm 13:40 Cloudy with Light Rain 46 8 46 8 100 100 NE 5 7 29.94 1014 4 6 N/A
1:48 pm 13:48 Cloudy with Light Rain 46 8 46 8 100 100 NE 7 11 29.94 1014 5 8 N/A
1:53 pm 13:53 Cloudy with Light Rain 47 8.3 46 7.8 97 97 NNE 7 11 29.96 1015 5 8 0.11 2.79
2:53 pm 14:53 Cloudy with Rain 47 8.3 47 8.3 100 100 N 7 11 29.92 1013 4 6 0.06 1.52
3:07 pm 15:07 Cloudy with Rain 47 8.3 47 8.3 100 100 NNE 6 9 29.91 1013 2 3 0.06 1.52
3:14 pm 15:14 Cloudy with Light Rain 48 9 48 9 100 100 NNE 6 9 29.91 1013 3 5 N/A
3:34 pm 15:34 Cloudy with Rain 46 8 46 8 100 100 NNE 6 9 29.91 1013 3 5 N/A
3:53 pm 15:53 Cloudy with Light Rain 46 8 N/A N/A N 7 11 29.91 1013 5 8 0.15 3.81
4:53 pm 16:53 Cloudy with Light Rain 47 8.3 47 8.3 100 100 NNE 7 11 29.88 1012 4 6 0.07 1.78
5:29 pm 17:29 Cloudy 48 8.9 48 8.9 100 100 NNE 6 9 29.85 1011 10 16 N/A
5:53 pm 17:53 Cloudy 48 8.9 48 8.9 100 100 NE 7 11 29.85 1011 10 16 N/A
6:53 pm 18:53 Cloudy with Light Rain 48 8.9 48 8.9 100 100 NNE 10 17 29.83 1010 3 4 0.02 0.51
7:01 pm 19:01 Cloudy with Light Rain 48 8.9 48 8.9 100 100 NE 8 13 29.83 1010 3 5 N/A
7:53 pm 19:53 Cloudy with Light Rain 47 8.3 47 8.3 100 100 N 8 13 29.83 1010 3 5 0.01 0.25
8:30 pm 20:30 Cloudy with Mist and Fog 46 8 46 8 100 100 N 9 15 29.83 1010 6 10 N/A
8:53 pm 20:53 Cloudy 47 8.3 47 8.3 100 100 N 7 11 29.81 1010 10 16 0.01 0.25
9:05 pm 21:05 Cloudy 48 8.9 47 8.3 96 96 NW 5 7 29.80 1009 10 16 N/A
9:16 pm 21:16 Cloudy 46 8 46 8 100 100 W 5 7 29.83 1010 10 16 N/A
9:53 pm 21:53 Cloudy 47 8.3 47 8.3 100 100 W 6 9 29.80 1009 10 16 N/A
10:49 pm 22:49 Cloudy with Mist and Fog 46 8 46 8 100 100 WNW 6 9 29.83 1010 3 4 0.01 0.25
10:53 pm 22:53 Cloudy with Mist and Fog 47 8.3 47 8.3 100 100 W 7 11 29.81 1010 3 5 0.01 0.25
11:10 pm 23:10 Cloudy with Mist and Fog 46 8 46 8 100 100 WNW 6 9 29.83 1010 3 4 N/A
11:24 pm 23:24 Cloudy with Mist and Fog 46 8 46 8 100 100 WNW 6 9 29.83 1010 3 5 N/A
11:53 pm 23:53 Cloudy with Mist and Fog 47 8.3 47 8.3 100 100 WNW 6 9 29.80 1009 3 5 N/A

Powered by AerisWeather